Weather History for Doha, Qatar

Change the Weather History Date:

Tuesday, November 27, 2012

  Actual Average Record
Temperature  
Mean Temperature 76 °F -  
Max Temperature 81 °F 76 °F 89 °F (2006)
Min Temperature 71 °F 60 °F 62 °F (2011)
Cooling Degree Days 12    
Growing Degree Days 26 (Base 50)    
Moisture  
Dew Point 60 °F    
Average Humidity 57    
Maximum Humidity 78    
Minimum Humidity 40    
Precipitation  
Precipitation 0.00 in 0.01 in - ()
Sea Level Pressure  
Sea Level Pressure 29.98 in    
Wind  
Wind Speed 11 mph ()    
Max Wind Speed 20 mph    
Max Gust Speed -    
Visibility 5.4 miles    
Events      
Averages and records for this station are not official NWS values.
T = Trace of Precipitation, MM = Missing Value Source: Averaged Metar Reports

Daily Weather History Graph

Daily Weather History Graph

Search for Another Location

Airport:

Trip Planner

Search our weather history database for the weather conditions in past years. The results will help you decide how hot, cold, wet, or windy it might be!

Date:

Astronomy

Nov. 27, 2012 Rise Set
Actual Time 5:59 AM AST 4:43 PM AST
Civil Twilight 5:34 AM AST 5:07 PM AST
Nautical Twilight 5:06 AM AST 5:36 PM AST
Astronomical Twilight 4:39 AM AST 6:03 PM AST
Moon 3:56 PM AST (11/27) 4:47 AM AST (11/27)
Length of Visible Light 11h 33m
Length of Day
10h 43m
Waxing Gibbous, 99% of the Moon is Illuminated
Nov 27
Waxing Gibbous
Nov 28
Full
Dec 6
Last Quarter
Dec 13
New
Dec 20
First Quarter

Hourly Weather History & Observations

Time (AST) Temp. Heat Index Dew Point Humidity Pressure Visibility Wind Dir Wind Speed Gust Speed Precip Events Conditions
12:00 AM 80.6 °F 82.3 °F 64.4 °F 58% 29.89 in - SSW 6.9 mph - N/A   Clear
12:30 AM 80.6 °F 80.5 °F 55.4 °F 42% 29.92 in - WSW 8.1 mph - N/A   Clear
1:00 AM 78.8 °F - 60.8 °F 54% 29.92 in 2.2 mi WNW 10.4 mph - N/A   Unknown
2:00 AM 75.2 °F - 62.6 °F 65% 29.92 in 2.2 mi WNW 12.7 mph - N/A   Unknown
3:00 AM 75 °F - 65 °F 63% 29.92 in 3 mi NNW 10.4 mph - -   Widespread Dust
3:00 AM 75.2 °F - 64.4 °F 69% 29.92 in 3.1 mi NW 10.4 mph - N/A   Unknown
3:30 AM 75.2 °F - 66.2 °F 73% 29.92 in 3.1 mi NW 10.4 mph - N/A   Unknown
4:00 AM 73.4 °F - 66.2 °F 78% 29.92 in 3.1 mi NW 10.4 mph - N/A   Unknown
4:30 AM 73.4 °F - 66.2 °F 78% 29.92 in 4.3 mi NW 10.4 mph - N/A   Unknown
5:00 AM 73.4 °F - 66.2 °F 78% 29.92 in 4.3 mi NW 10.4 mph - N/A   Unknown
5:30 AM 73.4 °F - 66.2 °F 78% 29.92 in 4.3 mi NW 9.2 mph - N/A   Unknown
6:00 AM 73.4 °F - 66.2 °F 78% 29.95 in 3.7 mi NW 9.2 mph - N/A   Unknown
6:30 AM 73.4 °F - 66.2 °F 78% 29.95 in 4.3 mi NW 8.1 mph - N/A   Unknown
7:00 AM 73.4 °F - 66.2 °F 78% 29.98 in 5.0 mi NW 6.9 mph - N/A   Unknown
7:30 AM 73.4 °F - 66.2 °F 78% 29.98 in - WNW 10.4 mph - N/A   Clear
8:00 AM 75.2 °F - 66.2 °F 73% 29.98 in - NW 8.1 mph - N/A   Clear
8:30 AM 77.0 °F - 64.4 °F 65% 30.01 in - NW 9.2 mph - N/A   Clear
9:00 AM 78 °F - 63 °F 51% 30.01 in 9 mi NW 11.5 mph - -   Clear
9:00 AM 78.8 °F - 62.6 °F 57% 30.01 in - NW 11.5 mph - N/A   Clear
10:00 AM 80.6 °F 81.8 °F 62.6 °F 54% 30.01 in 6.2 mi NNW 15.0 mph - N/A   Partly Cloudy
10:30 AM 80.6 °F 81.5 °F 60.8 °F 51% 30.01 in 6.2 mi North 15.0 mph - N/A   Partly Cloudy
11:00 AM 80.6 °F 81.5 °F 60.8 °F 51% 29.98 in 6.2 mi North 15.0 mph - N/A   Partly Cloudy
11:30 AM 80.6 °F 80.8 °F 57.2 °F 45% 29.98 in 6.2 mi North 18.4 mph - N/A   Partly Cloudy
12:00 PM 80.6 °F 81.1 °F 59.0 °F 48% 29.98 in 6.2 mi North 16.1 mph - N/A   Partly Cloudy
12:30 PM 80.6 °F 81.8 °F 62.6 °F 54% 29.95 in 6.2 mi NNE 15.0 mph - N/A   Partly Cloudy
1:00 PM 80.6 °F 81.1 °F 59.0 °F 48% 29.95 in 6.2 mi NNE 16.1 mph - N/A   Partly Cloudy
1:30 PM 80.6 °F 81.5 °F 60.8 °F 51% 29.95 in 6.2 mi North 16.1 mph - N/A   Scattered Clouds
2:00 PM 80.6 °F 81.1 °F 59.0 °F 48% 29.95 in 6.2 mi North 16.1 mph - N/A   Scattered Clouds
2:30 PM 80.6 °F 81.8 °F 62.6 °F 54% 29.95 in 6.2 mi North 17.3 mph - N/A   Scattered Clouds
3:00 PM 80 °F - 60 °F 40% 29.96 in 9 mi North 19.6 mph - -   Scattered Clouds
3:00 PM 80.6 °F 81.1 °F 59.0 °F 48% 29.95 in 6.2 mi North 19.6 mph - N/A   Scattered Clouds
3:30 PM 78.8 °F - 59.0 °F 51% 29.95 in 6.2 mi North 18.4 mph - N/A   Scattered Clouds
4:00 PM 78.8 °F - 59.0 °F 51% 29.95 in 6.2 mi North 17.3 mph - N/A   Scattered Clouds
4:30 PM 78.8 °F - 55.4 °F 44% 29.98 in 6.2 mi NNW 17.3 mph - N/A   Scattered Clouds
5:00 PM 77.0 °F - 55.4 °F 47% 29.98 in 6.2 mi NNW 15.0 mph - N/A   Scattered Clouds
5:30 PM 77.0 °F - 59.0 °F 54% 29.98 in - NNW 17.3 mph - N/A   Clear
6:00 PM 75.2 °F - 57.2 °F 53% 30.01 in - NNW 13.8 mph - N/A   Clear
6:30 PM 75.2 °F - 57.2 °F 53% 30.01 in - NNW 11.5 mph - N/A   Clear
7:00 PM 75.2 °F - 55.4 °F 50% 30.04 in - NNW 12.7 mph - N/A   Clear
7:30 PM 75.2 °F - 55.4 °F 50% 30.04 in - NNW 11.5 mph - N/A   Clear
8:00 PM 75.2 °F - 55.4 °F 50% 30.04 in - NNW 11.5 mph - N/A   Clear
8:30 PM 75.2 °F - 55.4 °F 50% 30.04 in - NNW 11.5 mph - N/A   Clear
9:00 PM 74 °F - 55 °F 41% 30.07 in 7 mi NNW 12.7 mph - -   Clear
9:00 PM 73.4 °F - 55.4 °F 53% 30.06 in - NNW 12.7 mph - N/A   Clear
9:30 PM 73.4 °F - 55.4 °F 53% 30.06 in - NNW 11.5 mph - N/A   Clear
10:00 PM 73.4 °F - 55.4 °F 53% 30.06 in - NNW 11.5 mph - N/A   Clear
10:30 PM 73.4 °F - 53.6 °F 50% 30.06 in - NNW 12.7 mph - N/A   Clear
11:00 PM 73.4 °F - 53.6 °F 50% 30.06 in - NNW 15.0 mph - N/A   Clear
11:30 PM 71.6 °F - 51.8 °F 50% 30.06 in - NNW 12.7 mph - N/A   Clear